Location: Foxtrotter Observatory
(29.3381°N, 82.2844°W)
Time: 18:56:48
(UTC-05:00)

ISS - Visible Passes

Search period start: 24 February 2018 00:00
Search period end: 06 March 2018 00:00
Orbit: 402 x 407 km, 51.6° (Epoch: 25 February)

Date Brightness Start Highest point End Pass type
(mag) Time Alt. Az. Time Alt. Az. Time Alt. Az.
25 Feb -2.5 05:46:54 10° SSW 05:49:56 38° SE 05:53:00 10° ENE visible
26 Feb -1.1 04:57:55 17° SE 04:57:55 17° SE 05:00:03 10° E visible
26 Feb -2.7 06:31:17 10° WSW 06:34:07 27° NW 06:36:57 10° NNE visible
27 Feb -3.8 05:41:21 52° W 05:41:48 59° NW 05:45:03 10° NE visible
28 Feb -1.0 04:51:50 18° ENE 04:51:50 18° ENE 04:52:46 10° NE visible
28 Feb -1.6 06:25:01 10° WNW 06:26:16 12° NW 06:27:31 10° NNW visible
01 Mar -1.9 05:34:47 19° NNW 05:34:47 19° NNW 05:36:23 10° NNE visible
